Weather History for Middletown, PA

Change the Weather History Date:

Tuesday, August 7, 2012

  Actual Average Record
Temperature  
Mean Temperature 75 °F 75 °F  
Max Temperature 85 °F 84 °F 104 °F (1918)
Min Temperature 65 °F 66 °F 53 °F (1964)
Degree Days  
Heating Degree Days 0 0  
Month to date heating degree days 0 0  
Since 1 June heating degree days 12 18  
Since 1 July heating degree days 0 0  
Cooling Degree Days 10 10  
Month to date cooling degree days 94 70  
Year to date cooling degree days 879 686  
Since 1 June cooling degree days 750 621  
Growing Degree Days 25 (Base 50)    
Moisture  
Dew Point 65 °F    
Average Humidity 69    
Maximum Humidity 87    
Minimum Humidity 51    
Precipitation  
Precipitation 0.00 in 0.10 in 2.07 in (1920)
Month to date precipitation 1.80 0.79  
Year to date precipitation 25.14 24.53  
Sea Level Pressure  
Sea Level Pressure 29.99 in    
Wind  
Wind Speed 1 mph (SE)    
Max Wind Speed 6 mph    
Max Gust Speed 13 mph    
Visibility 10 miles    
Events      
T = Trace of Precipitation, MM = Missing Value Source: NWS Daily Summary

Daily Weather History Graph

Daily Weather History Graph

Search for Another Location

Airport:

Trip Planner

Search our weather history database for the weather conditions in past years. The results will help you decide how hot, cold, wet, or windy it might be!

Date:

Astronomy

Aug. 07, 2012 Rise Set
Actual Time 6:11 AM EDT 8:13 PM EDT
Civil Twilight 5:41 AM EDT 8:43 PM EDT
Nautical Twilight 5:04 AM EDT 9:19 PM EDT
Astronomical Twilight 4:25 AM EDT 9:59 PM EDT
Moon 10:52 PM EDT (8/7) 11:57 AM EDT (8/7)
Length of Visible Light 15h 02m
Length of Day
14h 02m
Waning Gibbous, 70% of the Moon is Illuminated
Aug 7
Waning Gibbous
Aug 9
Last Quarter
Aug 17
New
Aug 24
First Quarter
Aug 31
Full

Hourly Weather History & Observations

Time (EDT) Temp. Heat Index Dew Point Humidity Pressure Visibility Wind Dir Wind Speed Gust Speed Precip Events Conditions
12:56 AM 69.1 °F - 63.0 °F 81% 30.01 in 10.0 mi Calm Calm - N/A   Scattered Clouds
1:56 AM 68.0 °F - 64.0 °F 87% 30.01 in 10.0 mi Calm Calm - N/A   Mostly Cloudy
2:56 AM 68.0 °F - 63.0 °F 84% 30.00 in 10.0 mi North 3.5 mph - N/A   Mostly Cloudy
3:56 AM 66.9 °F - 62.1 °F 84% 29.99 in 10.0 mi Calm Calm - N/A   Mostly Cloudy
4:56 AM 66.0 °F - 63.0 °F 90% 30.00 in 10.0 mi Calm Calm - N/A   Mostly Cloudy
5:56 AM 66.0 °F - 62.1 °F 87% 30.01 in 10.0 mi NNE 3.5 mph - N/A   Mostly Cloudy
6:56 AM 66.0 °F - 62.1 °F 87% 30.01 in 9.0 mi Calm Calm - N/A   Mostly Cloudy
7:56 AM 66.9 °F - 63.0 °F 87% 30.02 in 9.0 mi Calm Calm - N/A   Scattered Clouds
8:56 AM 70.0 °F - 63.0 °F 78% 30.03 in 10.0 mi Calm Calm - N/A   Mostly Cloudy
9:56 AM 73.9 °F - 64.0 °F 71% 30.03 in 10.0 mi Calm Calm - N/A   Mostly Cloudy
10:56 AM 78.1 °F - 63.0 °F 60% 30.02 in 10.0 mi South 3.5 mph - N/A   Scattered Clouds
11:56 AM 79.0 °F - 64.0 °F 60% 30.01 in 10.0 mi SE 4.6 mph - N/A   Mostly Cloudy
12:56 PM 81.0 °F 82.7 °F 64.9 °F 58% 30.00 in 10.0 mi Calm Calm - N/A   Clear
1:56 PM 84.0 °F 85.4 °F 64.0 °F 51% 29.98 in 10.0 mi Calm Calm - N/A   Mostly Cloudy
2:56 PM 82.9 °F 84.6 °F 64.9 °F 54% 29.97 in 10.0 mi SSE 3.5 mph - N/A   Mostly Cloudy
3:56 PM 84.0 °F 85.4 °F 64.0 °F 51% 29.96 in 10.0 mi Calm Calm - N/A   Mostly Cloudy
4:56 PM 84.9 °F 86.6 °F 64.9 °F 51% 29.95 in 10.0 mi Calm Calm - N/A   Mostly Cloudy
5:56 PM 82.9 °F 85.4 °F 66.9 °F 58% 29.95 in 10.0 mi Calm Calm - N/A   Mostly Cloudy
6:56 PM 80.1 °F 83.2 °F 70.0 °F 71% 29.95 in 10.0 mi Calm Calm - N/A   Mostly Cloudy
7:56 PM 80.1 °F 82.9 °F 69.1 °F 69% 29.95 in 9.0 mi Calm Calm - N/A   Mostly Cloudy
8:56 PM 77.0 °F - 69.1 °F 76% 29.96 in 9.0 mi Calm Calm - N/A   Mostly Cloudy
9:56 PM 75.9 °F - 68.0 °F 76% 29.96 in 9.0 mi SE 3.5 mph - N/A   Mostly Cloudy
10:56 PM 75.0 °F - 69.1 °F 82% 29.97 in 10.0 mi SE 3.5 mph - N/A   Overcast
11:56 PM 73.0 °F - 69.1 °F 87% 29.97 in 8.0 mi SE 4.6 mph - N/A   Overcast